Time,TemperatureF,DewpointF,PressureIn,WindDirection,WindDirectionDegrees,WindSpeedMPH,WindSpeedGustMPH,Humidity,HourlyPrecipIn,Conditions,Clouds,dailyrainin,SoftwareType,DateUTC
2013-04-11 00:03:00,46.0,-99.9,-100.00,North,-999,-999.0,-999.0,-999,0.07,,,0.60,,2013-04-11 04:03:00,
2013-04-11 00:13:00,46.0,-99.9,-100.00,North,-999,-999.0,-999.0,-999,0.07,,,0.60,,2013-04-11 04:13:00,
2013-04-11 00:23:00,46.0,-99.9,-100.00,North,-999,-999.0,-999.0,-999,0.07,,,0.60,,2013-04-11 04:23:00,
2013-04-11 00:30:00,45.0,-99.9,-100.00,North,-999,-999.0,-999.0,-999,0.03,,,0.63,,2013-04-11 04:30:00,
2013-04-11 00:34:00,45.0,-99.9,-100.00,North,-999,-999.0,-999.0,-999,0.06,,,0.62,,2013-04-11 04:34:00,
2013-04-11 00:43:00,45.0,-99.9,-100.00,North,-999,-999.0,-999.0,-999,0.06,,,0.62,,2013-04-11 04:43:00,
2013-04-11 00:53:00,45.0,-99.9,-100.00,North,-999,-999.0,-999.0,-999,0.06,,,0.62,,2013-04-11 04:53:00,
2013-04-11 01:03:00,45.0,-99.9,-100.00,North,-999,-999.0,-999.0,-999,0.03,,,0.63,,2013-04-11 05:03:00,
2013-04-11 01:13:00,45.0,-99.9,-100.00,North,-999,-999.0,-999.0,-999,0.03,,,0.63,,2013-04-11 05:13:00,
2013-04-11 01:23:00,45.0,-99.9,-100.00,North,-999,-999.0,-999.0,-999,0.03,,,0.63,,2013-04-11 05:23:00,
2013-04-11 01:30:00,45.0,-99.9,-100.00,North,-999,-999.0,-999.0,-999,0.01,,,0.61,,2013-04-11 05:30:00,
2013-04-11 02:03:00,45.0,-99.9,-100.00,North,-999,-999.0,-999.0,-999,0.01,,,0.61,,2013-04-11 06:03:00,
2013-04-11 02:12:00,45.0,-99.9,-100.00,North,-999,-999.0,-999.0,-999,0.01,,,0.61,,2013-04-11 06:12:00,
2013-04-11 02:22:00,45.0,-99.9,-100.00,North,-999,-999.0,-999.0,-999,0.01,,,0.61,,2013-04-11 06:22:00,
2013-04-11 02:30:00,43.0,-99.9,-100.00,North,-999,-999.0,-999.0,-999,0.00,,,0.48,,2013-04-11 06:30:00,
2013-04-11 03:03:00,43.0,-99.9,-100.00,North,-999,-999.0,-999.0,-999,0.00,,,0.48,,2013-04-11 07:03:00,
2013-04-11 03:12:00,43.0,-99.9,-100.00,North,-999,-999.0,-999.0,-999,0.00,,,0.48,,2013-04-11 07:12:00,
2013-04-11 03:30:00,43.0,-99.9,-100.00,North,-999,-999.0,-999.0,-999,0.01,,,0.42,,2013-04-11 07:30:00,
2013-04-11 04:03:00,43.0,-99.9,-100.00,North,-999,-999.0,-999.0,-999,0.01,,,0.42,,2013-04-11 08:03:00,
2013-04-11 04:12:00,43.0,-99.9,-100.00,North,-999,-999.0,-999.0,-999,0.01,,,0.42,,2013-04-11 08:12:00,
2013-04-11 04:22:00,43.0,-99.9,-100.00,North,-999,-999.0,-999.0,-999,0.01,,,0.42,,2013-04-11 08:22:00,
2013-04-11 04:30:00,43.0,-99.9,-100.00,North,-999,-999.0,-999.0,-999,0.00,,,0.40,,2013-04-11 08:30:00,
2013-04-11 05:02:00,43.0,-99.9,-100.00,North,-999,-999.0,-999.0,-999,0.00,,,0.40,,2013-04-11 09:02:00,
2013-04-11 05:12:00,43.0,-99.9,-100.00,North,-999,-999.0,-999.0,-999,0.00,,,0.40,,2013-04-11 09:12:00,
2013-04-11 05:22:00,43.0,-99.9,-100.00,North,-999,-999.0,-999.0,-999,0.00,,,0.40,,2013-04-11 09:22:00,
2013-04-11 06:00:00,43.0,-99.9,-100.00,North,-999,-999.0,-999.0,-999,0.00,,,0.40,,2013-04-11 10:00:00,
2013-04-11 06:03:00,43.0,-99.9,-100.00,North,-999,-999.0,-999.0,-999,0.00,,,0.40,,2013-04-11 10:03:00,
2013-04-11 06:13:00,43.0,-99.9,-100.00,North,-999,-999.0,-999.0,-999,0.00,,,0.40,,2013-04-11 10:13:00,
2013-04-11 06:23:00,43.0,-99.9,-100.00,North,-999,-999.0,-999.0,-999,0.00,,,0.40,,2013-04-11 10:23:00,
2013-04-11 06:30:00,43.0,-99.9,-100.00,North,-999,-999.0,-999.0,-999,0.00,,,0.40,,2013-04-11 10:30:00,
2013-04-11 06:33:00,43.0,-99.9,-100.00,North,-999,-999.0,-999.0,-999,0.00,,,0.40,,2013-04-11 10:33:00,
2013-04-11 06:42:00,43.0,-99.9,-100.00,North,-999,-999.0,-999.0,-999,0.00,,,0.40,,2013-04-11 10:42:00,
2013-04-11 06:53:00,43.0,-99.9,-100.00,North,-999,-999.0,-999.0,-999,0.00,,,0.40,,2013-04-11 10:53:00,
2013-04-11 07:23:00,43.0,-99.9,-100.00,North,-999,-999.0,-999.0,-999,0.00,,,0.40,,2013-04-11 11:23:00,
2013-04-11 07:30:00,43.0,-99.9,-100.00,North,-999,-999.0,-999.0,-999,0.00,,,0.40,,2013-04-11 11:30:00,
2013-04-11 08:02:00,43.0,-99.9,-100.00,North,-999,-999.0,-999.0,-999,0.00,,,0.40,,2013-04-11 12:02:00,
2013-04-11 08:13:00,43.0,-99.9,-100.00,North,-999,-999.0,-999.0,-999,0.00,,,0.40,,2013-04-11 12:13:00,
2013-04-11 08:23:00,43.0,-99.9,-100.00,North,-999,-999.0,-999.0,-999,0.00,,,0.40,,2013-04-11 12:23:00,
2013-04-11 08:30:00,43.0,-99.9,-100.00,North,-999,-999.0,-999.0,-999,0.00,,,0.40,,2013-04-11 12:30:00,
2013-04-11 09:03:00,43.0,-99.9,-100.00,North,-999,-999.0,-999.0,-999,0.00,,,0.40,,2013-04-11 13:03:00,
2013-04-11 09:13:00,43.0,-99.9,-100.00,North,-999,-999.0,-999.0,-999,0.00,,,0.40,,2013-04-11 13:13:00,
2013-04-11 09:23:00,43.0,-99.9,-100.00,North,-999,-999.0,-999.0,-999,0.00,,,0.40,,2013-04-11 13:23:00,
2013-04-11 09:30:00,43.0,-99.9,-100.00,North,-999,-999.0,-999.0,-999,0.00,,,0.40,,2013-04-11 13:30:00,
2013-04-11 10:04:00,43.0,-99.9,-100.00,North,-999,-999.0,-999.0,-999,0.00,,,0.40,,2013-04-11 14:04:00,
2013-04-11 10:13:00,43.0,-99.9,-100.00,North,-999,-999.0,-999.0,-999,0.00,,,0.40,,2013-04-11 14:13:00,
2013-04-11 10:22:00,43.0,-99.9,-100.00,North,-999,-999.0,-999.0,-999,0.00,,,0.40,,2013-04-11 14:22:00,
2013-04-11 10:30:00,42.0,-99.9,-100.00,North,-999,-999.0,-999.0,-999,0.00,,,0.40,,2013-04-11 14:30:00,
2013-04-11 11:03:00,42.0,-99.9,-100.00,North,-999,-999.0,-999.0,-999,0.00,,,0.40,,2013-04-11 15:03:00,
2013-04-11 11:13:00,42.0,-99.9,-100.00,North,-999,-999.0,-999.0,-999,0.00,,,0.40,,2013-04-11 15:13:00,
2013-04-11 11:22:00,42.0,-99.9,-100.00,North,-999,-999.0,-999.0,-999,0.00,,,0.40,,2013-04-11 15:22:00,
2013-04-11 12:02:00,42.0,-99.9,-100.00,North,-999,-999.0,-999.0,-999,0.00,,,0.40,,2013-04-11 16:02:00,
2013-04-11 12:13:00,42.0,-99.9,-100.00,North,-999,-999.0,-999.0,-999,0.00,,,0.40,,2013-04-11 16:13:00,
2013-04-11 12:23:00,42.0,-99.9,-100.00,North,-999,-999.0,-999.0,-999,0.00,,,0.40,,2013-04-11 16:23:00,
2013-04-11 12:30:00,42.0,-99.9,-100.00,North,-999,-999.0,-999.0,-999,0.00,,,0.40,,2013-04-11 16:30:00,
2013-04-11 12:33:00,42.0,-99.9,-100.00,North,-999,-999.0,-999.0,-999,0.00,,,0.40,,2013-04-11 16:33:00,
2013-04-11 12:42:00,42.0,-99.9,-100.00,North,-999,-999.0,-999.0,-999,0.00,,,0.40,,2013-04-11 16:42:00,
2013-04-11 12:53:00,42.0,-99.9,-100.00,North,-999,-999.0,-999.0,-999,0.00,,,0.40,,2013-04-11 16:53:00,
2013-04-11 13:03:00,42.0,-99.9,-100.00,North,-999,-999.0,-999.0,-999,0.00,,,0.40,,2013-04-11 17:03:00,
2013-04-11 13:13:00,42.0,-99.9,-100.00,North,-999,-999.0,-999.0,-999,0.00,,,0.40,,2013-04-11 17:13:00,
2013-04-11 13:23:00,42.0,-99.9,-100.00,North,-999,-999.0,-999.0,-999,0.00,,,0.40,,2013-04-11 17:23:00,
2013-04-11 13:30:00,44.0,-99.9,-100.00,North,-999,-999.0,-999.0,-999,0.00,,,0.40,,2013-04-11 17:30:00,
2013-04-11 14:04:00,44.0,-99.9,-100.00,North,-999,-999.0,-999.0,-999,0.00,,,0.40,,2013-04-11 18:04:00,
2013-04-11 14:14:00,44.0,-99.9,-100.00,North,-999,-999.0,-999.0,-999,0.00,,,0.40,,2013-04-11 18:14:00,
2013-04-11 14:24:00,44.0,-99.9,-100.00,North,-999,-999.0,-999.0,-999,0.00,,,0.40,,2013-04-11 18:24:00,
2013-04-11 14:30:00,43.0,-99.9,-100.00,North,-999,-999.0,-999.0,-999,0.00,,,0.40,,2013-04-11 18:30:00,
2013-04-11 15:04:00,43.0,-99.9,-100.00,North,-999,-999.0,-999.0,-999,0.00,,,0.40,,2013-04-11 19:04:00,
2013-04-11 15:14:00,43.0,-99.9,-100.00,North,-999,-999.0,-999.0,-999,0.00,,,0.40,,2013-04-11 19:14:00,
2013-04-11 15:23:00,43.0,-99.9,-100.00,North,-999,-999.0,-999.0,-999,0.00,,,0.40,,2013-04-11 19:23:00,
2013-04-11 15:30:00,42.0,-99.9,-100.00,North,-999,-999.0,-999.0,-999,0.00,,,0.39,,2013-04-11 19:30:00,
2013-04-11 16:14:00,42.0,-99.9,-100.00,North,-999,-999.0,-999.0,-999,0.00,,,0.39,,2013-04-11 20:14:00,
2013-04-11 16:23:00,42.0,-99.9,-100.00,North,-999,-999.0,-999.0,-999,0.00,,,0.39,,2013-04-11 20:23:00,
2013-04-11 16:30:00,40.0,-99.9,-100.00,North,-999,-999.0,-999.0,-999,0.00,,,0.39,,2013-04-11 20:30:00,
2013-04-11 17:04:00,40.0,-99.9,-100.00,North,-999,-999.0,-999.0,-999,0.00,,,0.39,,2013-04-11 21:04:00,
2013-04-11 17:13:00,40.0,-99.9,-100.00,North,-999,-999.0,-999.0,-999,0.00,,,0.39,,2013-04-11 21:13:00,
2013-04-11 17:23:00,40.0,-99.9,-100.00,North,-999,-999.0,-999.0,-999,0.00,,,0.39,,2013-04-11 21:23:00,
2013-04-11 18:04:00,39.0,-99.9,-100.00,North,-999,-999.0,-999.0,-999,0.01,,,0.40,,2013-04-11 22:04:00,
2013-04-11 18:14:00,39.0,-99.9,-100.00,North,-999,-999.0,-999.0,-999,0.01,,,0.40,,2013-04-11 22:14:00,
2013-04-11 18:24:00,39.0,-99.9,-100.00,North,-999,-999.0,-999.0,-999,0.01,,,0.40,,2013-04-11 22:24:00,
2013-04-11 18:30:00,39.0,-99.9,-100.00,North,-999,-999.0,-999.0,-999,0.01,,,0.41,,2013-04-11 22:30:00,
2013-04-11 18:33:00,39.0,-99.9,-100.00,North,-999,-999.0,-999.0,-999,0.01,,,0.41,,2013-04-11 22:33:00,
2013-04-11 18:44:00,39.0,-99.9,-100.00,North,-999,-999.0,-999.0,-999,0.01,,,0.41,,2013-04-11 22:44:00,
2013-04-11 18:54:00,39.0,-99.9,-100.00,North,-999,-999.0,-999.0,-999,0.01,,,0.41,,2013-04-11 22:54:00,
2013-04-11 19:13:00,39.0,-99.9,-100.00,North,-999,-999.0,-999.0,-999,0.01,,,0.41,,2013-04-11 23:13:00,
2013-04-11 19:23:00,39.0,-99.9,-100.00,North,-999,-999.0,-999.0,-999,0.01,,,0.41,,2013-04-11 23:23:00,
2013-04-11 19:30:00,37.0,-99.9,-100.00,North,-999,-999.0,-999.0,-999,0.00,,,0.28,,2013-04-11 23:30:00,
2013-04-11 20:03:00,37.0,-99.9,-100.00,North,-999,-999.0,-999.0,-999,0.00,,,0.28,,2013-04-12 00:03:00,
2013-04-11 20:12:00,37.0,-99.9,-100.00,North,-999,-999.0,-999.0,-999,0.00,,,0.28,,2013-04-12 00:12:00,
2013-04-11 20:23:00,37.0,-99.9,-100.00,North,-999,-999.0,-999.0,-999,0.00,,,0.28,,2013-04-12 00:23:00,
2013-04-11 20:30:00,37.0,-99.9,-100.00,North,-999,-999.0,-999.0,-999,0.01,,,0.19,,2013-04-12 00:30:00,
2013-04-11 21:03:00,37.0,-99.9,-100.00,North,-999,-999.0,-999.0,-999,0.01,,,0.19,,2013-04-12 01:03:00,
2013-04-11 21:12:00,37.0,-99.9,-100.00,North,-999,-999.0,-999.0,-999,0.01,,,0.19,,2013-04-12 01:12:00,
2013-04-11 21:23:00,37.0,-99.9,-100.00,North,-999,-999.0,-999.0,-999,0.01,,,0.19,,2013-04-12 01:23:00,
2013-04-11 21:30:00,37.0,-99.9,-100.00,North,-999,-999.0,-999.0,-999,0.00,,,0.18,,2013-04-12 01:30:00,
2013-04-11 22:03:00,37.0,-99.9,-100.00,North,-999,-999.0,-999.0,-999,0.00,,,0.18,,2013-04-12 02:03:00,
2013-04-11 22:13:00,37.0,-99.9,-100.00,North,-999,-999.0,-999.0,-999,0.00,,,0.18,,2013-04-12 02:13:00,
2013-04-11 22:23:00,37.0,-99.9,-100.00,North,-999,-999.0,-999.0,-999,0.00,,,0.18,,2013-04-12 02:23:00,
2013-04-11 22:30:00,37.0,-99.9,-100.00,North,-999,-999.0,-999.0,-999,0.00,,,0.15,,2013-04-12 02:30:00,
2013-04-11 23:02:00,37.0,-99.9,-100.00,North,-999,-999.0,-999.0,-999,0.00,,,0.15,,2013-04-12 03:02:00,
2013-04-11 23:12:00,37.0,-99.9,-100.00,North,-999,-999.0,-999.0,-999,0.00,,,0.15,,2013-04-12 03:12:00,
2013-04-11 23:22:00,37.0,-99.9,-100.00,North,-999,-999.0,-999.0,-999,0.00,,,0.15,,2013-04-12 03:22:00,